Regional Weather Roundup
Issued by NWS

Home | Current Version | Previous Version | Text Only | Print | Product List | Glossary On
Versions: 1 2 3 4 5 6 7 8 9 10 11 12 13 14 15 16 17 18 19 20 21 22 23 24 25 26 27 28 29 30 31 32 33 34 35 36 37 38 39 40 41 42 43 44 45 46 47 48 49 50
000
ASUS46 KLOX 261512
RWRCA

SOUTHERN CALIFORNIA WEATHER ROUNDUP
NATIONAL WEATHER SERVICE OXNARD CALIFORNIA
800 AM PDT SUN APR 26 2015

NOTE: "FAIR" INDICATES FEW OR NO CLOUDS BELOW 12,000 FEET WITH NO
SIGNIFICANT WEATHER AND/OR OBSTRUCTIONS TO VISIBILITY.

  -  STATIONS PRECEEDED BY AN ASTERISK (*) ARE NOT NWS OR FAA
     STATIONS AND ARE NOT SUBJECT TO NWS AND FAA QUALITY CONTROL.

CAZ041-042-087-261600-
LA AND ORANGE COUNTY COASTAL AREAS


CITY           SKY/WX    TMP DP  RH WIND       PRES   REMARKS
L.A. DOWNTOWN  SUNNY     58  50  75 CALM      29.98R
L.A. AIRPORT   MOSUNNY   57  50  77 SE8       29.99R
LONG BEACH     SUNNY     57  51  80 SE5       29.99R

CITY           SKY/WX    TMP DP  RH WIND       PRES   REMARKS
AVALON           N/A     61 N/A N/A MISG        N/A
FULLERTON      SUNNY     57  49  74 E6        29.99R
*GETTY CENTER    N/A    N/A N/A N/A NE12G26     N/A
HAWTHORNE      SUNNY     58  50  75 SE7       29.99R
*LOS ALAMITOS  MOSUNNY   57  51  79 E7        29.99R
*REDONDO BEACH   N/A     55  52  89 CALM      29.98S
SANTA ANA      MOSUNNY   58  49  72 E5        29.99R
STA MONICA APT SUNNY     64  46  52 VRB7G18   29.98R
TORRANCE       MOSUNNY   59  54  82 CALM      30.00R
*UCLA            N/A     64  37  36 N12       29.97R

$$

CAZ547-548-048-261600-
LA COUNTY VALLEYS AND INLAND EMPIRE


CITY           SKY/WX    TMP DP  RH WIND       PRES   REMARKS
BURBANK        SUNNY     62  40  44 NW10      29.98R
VAN NUYS       SUNNY     63  39  41 N24G37    29.95R

CITY           SKY/WX    TMP DP  RH WIND       PRES   REMARKS
CORONA AIRPORT SUNNY     54  52  93 CALM      30.00R
*CHATSWORTH      N/A     64  40  42 N12       29.99S
CHINO          MOSUNNY   56  51  84 N3        30.01R
*NORTHRIDGE      N/A     61  37  41 NW6G14      N/A
ONTARIO        PTSUNNY   53  50  89 SE5       29.99R
*PASADENA        N/A     57  52  82 E2          N/A
POMONA         SUNNY     54  48  82 VRB5      30.02R
RIVERSIDE      MOSUNNY   54  50  86 CALM      30.00R
SAN BERNARDINO MOSUNNY   50  48  93 CALM      30.00R
*WHITEMAN AP   SUNNY     59  39  47 W20       30.01
*WOODLAND HILL   N/A     63  37  39 W5G14       N/A

$$

CAZ054-055-261600-
LA AND SAN BERNARDINO COUNTY MOUNTAINS


CITY           SKY/WX    TMP DP  RH WIND       PRES   REMARKS
*BIG BEAR AIRP MOSUNNY   36  30  80 W5        30.02R WCI  32
MT WILSON NWS    N/A     43  30  61 MISG        N/A
SANDBERG       CLOUDY    41  37  86 N17G24    30.04R WCI  32

$$

CAZ028-029-059-060-099-261600-
ANTELOPE VALLEY AND SURROUNDING AREAS


CITY           SKY/WX    TMP DP  RH WIND       PRES   REMARKS
LANCASTER      SUNNY     55  37  50 NW16      30.02R
PALMDALE       SUNNY     53  38  56 W12       30.02R

CITY           SKY/WX    TMP DP  RH WIND       PRES   REMARKS
29 PALMS       SUNNY     57  36  45 NW25G36   30.00R
BARSTOW/DAGGET SUNNY     57  36  45 W14       29.98R
BISHOP         MOSUNNY   52  26  36 N18G25    30.04R
CHINA LAKE     SUNNY     61  27  27 NW9       29.98R
EDWARDS AFB    SUNNY     56  35  45 NW13      29.98R
MOJAVE         FAIR      55  36  47 W17       30.01R
NEEDLES        SUNNY     63  36  36 N5        29.87R
VICTORVILLE    SUNNY     52  36  54 W16G23    30.00R

$$

CAZ039-040-261600-
VENTURA AND SANTA BARBARA COUNTY COAST


CITY           SKY/WX    TMP DP  RH WIND       PRES   REMARKS
CAMARILLO      SUNNY     54  45  71 CALM      30.00R
NWS OXNARD       N/A     54  48  80 CALM      30.00R
OXNARD AIRPORT SUNNY     56  48  74 CALM      30.00R
*POINT MUGU    MOSUNNY   58  49  72 NE3       30.01R
SBA APT/GOLETA SUNNY     59  44  57 W7        30.01R
*SANTA BARBARA   N/A     60  43  53 CALM      30.08R
*VENTURA         N/A     53  48  84 CALM      30.05S

$$

CAZ044-045-261600-
VENTURA COUNTY VALLEYS


CITY           SKY/WX    TMP DP  RH WIND       PRES   REMARKS
*SIMI VALLEY     N/A     61  44  54 S6        29.96R
*OJAI            N/A     56  49  78 CALM      29.95S
*FILLMORE        N/A     53  50  91 CALM      29.89S

$$

CAZ053-261600-
VENTURA COUNTY MOUNTAINS


CITY           SKY/WX    TMP DP  RH WIND       PRES   REMARKS
*LOCKWOOD VLY    N/A     43  32  65 MISG        N/A
*ROSE VALLEY     N/A     46  39  76 MISG        N/A

$$

CAZ034-035-036-261600-
CENTRAL COAST AND SANTA YNEZ VALLEY


CITY           SKY/WX    TMP DP  RH WIND       PRES   REMARKS
SAN LUIS OBISP SUNNY     55  38  52 VRB7      30.08R
SANTA MARIA    SUNNY     54  44  69 NW8       30.09R

CITY           SKY/WX    TMP DP  RH WIND       PRES   REMARKS
*CAL POLY SLO    N/A     52  41  66 NW7G13      N/A
*LOMPOC        SUNNY     54  45  71 W8        30.08R
*PISMO BEACH     N/A     56  41  58 NW2       30.09S
*SANTA YNEZ    FAIR      50  43  76 CALM      30.07R

$$

CAZ037-038-051-261600-
SAN LUIS OBISPO COUNTY INTERIOR AND CUYAMA VALLEY


CITY           SKY/WX    TMP DP  RH WIND       PRES   REMARKS
*CUYAMA          N/A     49  41  74 CALM      30.05R
PASO ROBLES    SUNNY     50  42  74 NW7       30.09R

$$

CAZ032-033-061-261600-
SOUTHERN DESERTS


CITY           SKY/WX    TMP DP  RH WIND       PRES   REMARKS
BLYTHE         SUNNY     70  34  26 NW15      29.86R
IMPERIAL       MOSUNNY   64  47  53 W9        29.88R
PALM SPRINGS   MOSUNNY   63  42  46 S3        29.92R
THERMAL        PTSUNNY   67  43  41 NW17      29.88R

$$

ELSEWHERE ACROSS THE WESTERN UNITED STATES AND MEXICO


CITY           SKY/WX    TMP DP  RH WIND       PRES   REMARKS
DENVER, CO     LGT RAIN  42  42 100 E21       29.85R WCI  33
GRAND CANYON,  CLOUDY    37  35  92 NW8       29.84R WCI  31
HONOLULU, HI   PTCLDY    72  70  94 S7        29.94S
KAHULUI, MAUI  CLEAR     70  64  83 S5        29.96R
LAKE TAHOE, CA CLOUDY    33  28  81 S3        30.11R
LAS VEGAS, NV  MOSUNNY   60  29  30 NW18G25   29.87R
MAMMOTH LAKES, FAIR      37  23  56 NW8       30.10R WCI  31
MEXICO CITY, M SUNNY     68  46  45 E6        30.28S
PHOENIX, AZ    PTSUNNY   58  51  78 W3        29.81R
PORTLAND, OR   CLOUDY    45  42  89 E10       30.21R
RENO, NV       MOSUNNY   42  28  57 E3        30.13R
SALT LAKE CITY LGT RAIN  40  36  86 N8        29.93R WCI  34
SAN DIEGO, CA  MOSUNNY   60  50  69 E3        30.01R
SAN FRANCISCO, MOSUNNY   54  45  71 W10       30.13R
SAN JOSE, CA   MOSUNNY   53  43  68 CALM      30.13R
SEATTLE, WA    CLOUDY    43  36  76 SE7       30.18R
TIJUANA, MEX   MOSUNNY   57  50  77 E6        30.02R

$$

STATION/POSITION TIME  TEMP    WIND        PRES    VSBY  WAVE
                       AIR SEA DIR/SP/G                  HT/PER
                 (UTC) (F)     (DEG/KT/KT) (MB)    (MI)  (FT/S)
POINT ARGUELLO B NOT AVBL
WEST SANTA BARBA 1500   54 53  320/ 21/ 27 1017.2R        10/ 8
POINT CONCEPTION NOT AVBL
EAST SANTA BARBA NOT AVBL
SANTA MONICA BAY 1500   58     320/ 10       N/A


USA.gov is the U.S. government's official web portal to all federal, state and local government web resources and services.